TimeCDT,TemperatureF,Dew PointF,Humidity,Sea Level PressureIn,VisibilityMPH,Wind Direction,Wind SpeedMPH,Gust SpeedMPH,PrecipitationIn,Events,Conditions,WindDirDegrees,DateUTC
12:15 AM,71.6,69.8,94,30.15,3.0,Calm,Calm,-,N/A,,Clear,0,2013-09-11 05:15:00
12:35 AM,71.6,71.6,100,30.14,2.5,Calm,Calm,-,N/A,,Clear,0,2013-09-11 05:35:00
12:55 AM,71.6,71.6,100,30.14,2.5,Calm,Calm,-,N/A,,Clear,0,2013-09-11 05:55:00
1:15 AM,71.6,71.6,100,30.14,2.0,SE,3.5,-,N/A,,Clear,140,2013-09-11 06:15:00
1:55 AM,71.6,71.6,100,30.14,4.0,Calm,Calm,-,N/A,,Clear,0,2013-09-11 06:55:00
2:15 AM,71.6,71.6,100,30.14,4.0,Calm,Calm,-,N/A,,Clear,0,2013-09-11 07:15:00
2:35 AM,71.6,71.6,100,30.14,4.0,Calm,Calm,-,N/A,,Clear,0,2013-09-11 07:35:00
2:55 AM,71.6,71.6,100,30.15,5.0,Calm,Calm,-,N/A,,Clear,0,2013-09-11 07:55:00
3:15 AM,71.6,69.8,94,30.15,5.0,Calm,Calm,-,N/A,,Clear,0,2013-09-11 08:15:00
3:35 AM,71.6,69.8,94,30.15,3.0,Calm,Calm,-,N/A,,Clear,0,2013-09-11 08:35:00
3:55 AM,71.6,69.8,94,30.15,3.0,Calm,Calm,-,N/A,,Clear,0,2013-09-11 08:55:00
4:15 AM,71.6,69.8,94,30.15,4.0,Calm,Calm,-,N/A,,Clear,0,2013-09-11 09:15:00
4:35 AM,71.6,69.8,94,30.16,3.0,Calm,Calm,-,N/A,,Clear,0,2013-09-11 09:35:00
4:55 AM,69.8,68.0,94,30.16,2.5,Calm,Calm,-,N/A,,Clear,0,2013-09-11 09:55:00
5:15 AM,69.8,68.0,94,30.17,3.0,Calm,Calm,-,N/A,,Clear,0,2013-09-11 10:15:00
5:35 AM,69.8,68.0,94,30.17,2.0,Calm,Calm,-,N/A,,Clear,0,2013-09-11 10:35:00
5:55 AM,69.8,68.0,94,30.18,3.0,Calm,Calm,-,N/A,,Clear,0,2013-09-11 10:55:00
6:15 AM,69.8,68.0,94,30.18,3.0,Calm,Calm,-,N/A,,Clear,0,2013-09-11 11:15:00
6:35 AM,69.8,68.0,94,30.19,4.0,Calm,Calm,-,N/A,,Clear,0,2013-09-11 11:35:00
6:55 AM,69.8,68.0,94,30.19,2.5,Calm,Calm,-,N/A,,Clear,0,2013-09-11 11:55:00
7:15 AM,71.6,69.8,94,30.19,4.0,Calm,Calm,-,N/A,,Clear,0,2013-09-11 12:15:00
7:35 AM,71.6,69.8,94,30.19,4.0,Calm,Calm,-,N/A,,Clear,0,2013-09-11 12:35:00
7:55 AM,73.4,71.6,94,30.19,5.0,Calm,Calm,-,N/A,,Clear,0,2013-09-11 12:55:00
8:15 AM,73.4,71.6,94,30.20,5.0,Calm,Calm,-,N/A,,Clear,0,2013-09-11 13:15:00
8:35 AM,75.2,71.6,89,30.20,5.0,Calm,Calm,-,N/A,,Clear,0,2013-09-11 13:35:00
8:55 AM,75.2,71.6,89,30.20,5.0,Calm,Calm,-,N/A,,Haze,0,2013-09-11 13:55:00
9:15 AM,77.0,71.6,83,30.20,7.0,Calm,Calm,-,N/A,,Clear,0,2013-09-11 14:15:00
9:35 AM,77.0,71.6,83,30.20,7.0,Calm,Calm,-,N/A,,Clear,0,2013-09-11 14:35:00
9:55 AM,80.6,71.6,74,30.20,8.0,SSW,4.6,-,N/A,,Clear,210,2013-09-11 14:55:00
10:15 AM,80.6,71.6,74,30.20,9.0,Calm,Calm,-,N/A,,Clear,0,2013-09-11 15:15:00
10:35 AM,80.6,71.6,74,30.20,8.0,Calm,Calm,-,N/A,,Clear,0,2013-09-11 15:35:00
10:55 AM,82.4,71.6,70,30.20,8.0,Calm,Calm,-,N/A,,Clear,0,2013-09-11 15:55:00
11:15 AM,82.4,69.8,66,30.19,10.0,Calm,Calm,-,N/A,,Clear,0,2013-09-11 16:15:00
11:35 AM,84.2,71.6,66,30.19,8.0,SW,3.5,-,N/A,,Partly Cloudy,220,2013-09-11 16:35:00
11:55 AM,84.2,69.8,62,30.19,8.0,Calm,Calm,-,N/A,,Clear,0,2013-09-11 16:55:00
12:15 PM,86.0,68.0,55,30.19,10.0,SW,4.6,-,N/A,,Partly Cloudy,220,2013-09-11 17:15:00
12:35 PM,86.0,66.2,51,30.18,10.0,Calm,Calm,-,N/A,,Scattered Clouds,0,2013-09-11 17:35:00
12:55 PM,86.0,66.2,51,30.17,10.0,Calm,Calm,-,N/A,,Partly Cloudy,0,2013-09-11 17:55:00
1:15 PM,87.8,66.2,49,30.17,10.0,Calm,Calm,-,N/A,,Partly Cloudy,0,2013-09-11 18:15:00
1:35 PM,89.6,66.2,46,30.16,10.0,Calm,Calm,-,N/A,,Partly Cloudy,0,2013-09-11 18:35:00
1:55 PM,87.8,66.2,49,30.15,10.0,Calm,Calm,-,N/A,,Scattered Clouds,0,2013-09-11 18:55:00
2:15 PM,89.6,64.4,43,30.14,10.0,Calm,Calm,-,N/A,,Partly Cloudy,0,2013-09-11 19:15:00
2:35 PM,86.0,66.2,51,30.14,10.0,Calm,Calm,-,N/A,,Clear,0,2013-09-11 19:35:00
2:55 PM,89.6,66.2,46,30.13,10.0,Calm,Calm,-,N/A,,Clear,0,2013-09-11 19:55:00
3:15 PM,89.6,64.4,43,30.11,10.0,SSW,5.8,-,N/A,,Clear,200,2013-09-11 20:15:00
3:35 PM,89.6,64.4,43,30.11,10.0,ESE,5.8,-,N/A,,Partly Cloudy,110,2013-09-11 20:35:00
3:55 PM,89.6,64.4,43,30.10,10.0,Calm,Calm,-,N/A,,Scattered Clouds,0,2013-09-11 20:55:00
4:15 PM,89.6,64.4,43,30.10,10.0,SSW,4.6,-,N/A,,Mostly Cloudy,200,2013-09-11 21:15:00
4:35 PM,89.6,64.4,43,30.10,10.0,South,4.6,-,N/A,,Scattered Clouds,180,2013-09-11 21:35:00
4:55 PM,89.6,64.4,43,30.10,10.0,SSW,6.9,-,N/A,,Clear,200,2013-09-11 21:55:00
5:15 PM,89.6,64.4,43,30.10,10.0,SSW,3.5,-,N/A,,Clear,200,2013-09-11 22:15:00
5:35 PM,89.6,64.4,43,30.10,10.0,Calm,Calm,-,N/A,,Clear,0,2013-09-11 22:35:00
5:55 PM,89.6,64.4,43,30.09,10.0,Calm,Calm,-,N/A,,Clear,0,2013-09-11 22:55:00
6:15 PM,87.8,64.4,46,30.09,10.0,Calm,Calm,-,N/A,,Clear,0,2013-09-11 23:15:00
6:35 PM,86.0,66.2,51,30.09,10.0,Calm,Calm,-,N/A,,Clear,0,2013-09-11 23:35:00
6:55 PM,82.4,68.0,62,30.09,10.0,Calm,Calm,-,N/A,,Clear,0,2013-09-11 23:55:00
7:15 PM,80.6,71.6,74,30.10,10.0,Calm,Calm,-,N/A,,Clear,0,2013-09-12 00:15:00
7:35 PM,77.0,71.6,83,30.10,10.0,Calm,Calm,-,N/A,,Clear,0,2013-09-12 00:35:00
7:55 PM,77.0,69.8,78,30.10,10.0,Calm,Calm,-,N/A,,Clear,0,2013-09-12 00:55:00
8:15 PM,75.2,69.8,83,30.11,10.0,Calm,Calm,-,N/A,,Clear,0,2013-09-12 01:15:00
8:35 PM,75.2,69.8,83,30.11,10.0,Calm,Calm,-,N/A,,Clear,0,2013-09-12 01:35:00
8:55 PM,75.2,69.8,83,30.11,10.0,Calm,Calm,-,N/A,,Clear,0,2013-09-12 01:55:00
9:15 PM,73.4,69.8,88,30.11,10.0,Calm,Calm,-,N/A,,Clear,0,2013-09-12 02:15:00
9:35 PM,73.4,69.8,88,30.11,10.0,Calm,Calm,-,N/A,,Clear,0,2013-09-12 02:35:00
9:55 PM,73.4,69.8,88,30.11,10.0,Calm,Calm,-,N/A,,Clear,0,2013-09-12 02:55:00
10:35 PM,73.4,68.0,83,30.12,10.0,Calm,Calm,-,N/A,,Clear,0,2013-09-12 03:35:00
10:55 PM,73.4,68.0,83,30.12,10.0,Calm,Calm,-,N/A,,Clear,0,2013-09-12 03:55:00
11:15 PM,73.4,68.0,83,30.11,10.0,Calm,Calm,-,N/A,,Clear,0,2013-09-12 04:15:00
11:35 PM,71.6,68.0,88,30.11,10.0,Calm,Calm,-,N/A,,Clear,0,2013-09-12 04:35:00
11:55 PM,71.6,68.0,88,30.10,10.0,Calm,Calm,-,N/A,,Clear,0,2013-09-12 04:55:00